STARLINK-5513, 57251

Orbit data source: Space-Track

STARLINK-5513, 57251 is a payload satellite owned by SpaceX/Seattle (US) in LEO that was launched on Fri, 07 Jul 2023 UTC via an FALCON 9 launch vehicle from the Air Force Western Test Range (AFWTR). Payload-class satellites include a variety of spacecraft equipped with specific instruments for various scientific and technological missions. These include communications satellites like Starlink; space stations such as the ISS; scientific satellites like the Hubble; Earth observation satellites from companies like Planet Labs, Umbra, and HawkEye 360; GPS; miniature CubeSats for education and research; and military/defense satellites.

Loading next visibility...
Identifier
57251, 2023-094AK
Orbit
LEO
Country
Flag of USUS
Related business
Manufacturer
SpaceX/Seattle
Mission
Operational Commercial Communications
Bus & Motor
STARLINK, Unknown motor
Mass
305 kg wet, ~290 kg dry
Launch date (UTC)
2023-07-07 (3 years ago)
Launch vehicle
FALCON 9
Launch site
Air Force Western Test Range (AFWTR)
Object type
Payload
Rocket body
Debris
Shape & HBR
Box + 1 Pan, 10.1 m
Radar Cross Section
11.087 m², Large (>1 m²)

Expand to show TLE details & history
Last TLE update: 10 hours ago

TLE from 10 hours ago
0 STARLINK-5513
1 57251U 23094AK  26167.75858681 -.00000641  00000-0 -13747-4 0  9997
2 57251  43.0120 180.1971 0002518 278.9349  81.1217 15.27572288162395
Epoch: 2026-06-16T18:12Z
TLE epoch observation values (Epoch: 2026-06-16T18:12:21.900Z)
Latitude
-0.00006°
Longitude
2.07976°
Altitude
482.583 km
Speed
7.626 km/s
True Right ascension
12h 00m 47s
True Declination
0° 00' 00"
Sunlit
Object was in daylight at epoch
Visualization orbit readout
Latitude
Unknown
Longitude
Unknown
Altitude
Unknown
Speed
Unknown
Apparent Right ascension
Unknown
Apparent Declination
Unknown
Sunlit
N/A
Visualization observer readout
Local Sidereal Time
14:32:36
Azimuth
Unknown
Elevation
Unknown
Doppler factor
Unknown
Orbital elements
Apogee altitude
486.743 km
Perigee altitude
483.287 km
Semi-major axis
6,863.152 km
Eccentricity
0.00025
Inclination
43.012°
RAAN
180.1971°
Arg. of periapsis
278.9349°
True anomaly
81.15021°
Mean anomaly
81.1217°
Eccentric anomaly
81.13595°
Mean motion
3.81731 °/min
Orbital period
94.31 mins
BSTAR
-0.000013747
Loading maneuver chart data...
Computing Atmospheric mass density...
Loading historical data...
Loading historical data...
Loading historical data...
Loading historical data...
Loading historical data...
Loading historical data...
Loading historical data...

Documentation

Showing up to 5 results
|